Home > Weather > Dannenberg > Past weeks

Flag for Germany Past Weather in Dannenberg, Lower Saxony, Germany — Yesterday and Last 2 Weeks

Now
59 °F

Partly sunny.


Feels Like: 58 °F
Forecast: 52 / 66 °F
Wind: 6 mph from Northwest

Location: Mecklenburg-Vorpommern - Parchim

Current Time: May 24, 2016 at 9:44:27 PM

Latest Report: May 24, 2016 at 6:50 PM


Visibility: N/A

Pressure: 29.86 "Hg

Humidity: 88%

Dew Point: 55 °F

Location of DannenbergLocation

Past Weather in Dannenberg — Graph

°F

Dannenberg Temperature Yesterday

Maximum temperature yesterday: 72 °F (at 3:50 PM)
Minimum temperature yesterday: 59 °F (at 6:20 AM)
Average temperature yesterday: 66 °F

High & Low Weather Summary for the Past Weeks

 TemperatureHumidityPressure
High84 °F (May 22, 5:20 PM)100% (May 16, 6:50 AM)30.07 "Hg (May 16, 6:50 AM)
Low39 °F (May 16, 6:50 AM)25% (May 22, 5:50 PM)29.59 "Hg (May 13, 2:20 PM)
Average61 °F61%29.84 "Hg
* Reported May 9 6:20 PM — May 24 6:50 PM, Dannenberg, Weather by CustomWeather, © 2016

Note: Actual official high and low records may vary slightly from our data, if they occured in-between our weather recording intervals... More about our weather records

Advertising

Dannenberg Weather History for the Previous 24 Hours

Scroll right to see more
 ConditionsComfort  
Time TempWeatherWind HumidityBarometerVisibility
6:50 PM
Tue, May 24
59 °FPartly sunny.6 mph88%29.86 "HgN/A
6:20 PM59 °FPartly sunny.7 mph82%29.86 "HgN/A
5:50 PM57 °FPartly sunny.8 mph88%29.86 "HgN/A
5:20 PM59 °FPartly sunny.7 mph88%29.86 "HgN/A
4:50 PM57 °FPartly sunny.8 mph94%29.86 "HgN/A
4:20 PM59 °FLow clouds.6 mph82%29.86 "HgN/A
3:50 PM59 °FPartly sunny.9 mph82%29.86 "HgN/A
3:20 PM59 °FLow clouds.8 mph82%29.86 "HgN/A
2:50 PM57 °FLow clouds.9 mph88%29.86 "Hg6 mi
2:20 PM57 °FLow clouds.7 mph88%29.86 "Hg5 mi
1:50 PM57 °FLow clouds.9 mph88%29.86 "Hg6 mi
1:20 PM55 °FLow clouds.8 mph94%29.86 "Hg4 mi
12:50 PM55 °FFog.8 mph94%29.86 "Hg2 mi
12:20 PM55 °FFog.8 mph94%29.86 "Hg3 mi
11:50 AM55 °FPartly sunny.9 mph94%29.83 "Hg4 mi
11:20 AM55 °FPartly sunny.10 mph100%29.83 "Hg4 mi
10:50 AM57 °FPartly sunny.9 mph94%29.83 "Hg4 mi
10:20 AM57 °FPartly sunny.10 mph94%29.83 "Hg6 mi
9:50 AM57 °FPartly sunny.10 mph94%29.83 "HgN/A
9:20 AM57 °FPartly sunny.8 mph94%29.80 "HgN/A
8:50 AM59 °FPartly sunny.9 mph88%29.80 "HgN/A
8:20 AM59 °FPartly sunny.7 mph88%29.80 "HgN/A
7:50 AM59 °FPartly sunny.5 mph94%29.80 "HgN/A
7:20 AM57 °FPartly sunny.5 mph94%29.80 "Hg6 mi
6:50 AM57 °FPartly sunny.6 mph94%29.80 "HgN/A
6:20 AM57 °FPartly sunny.5 mph94%29.77 "HgN/A
Weather by CustomWeather, © 2016

See weather overviewHow to use our weather pages